Terug naar catalogus

STARLINK-36636

ActiefCommunicatieSSO
NORAD 67611·PAYLOAD·🇺🇸 United States

Gelanceerd Jan 29, 2026 vanaf Vandenberg Space Force Base

Loading…

Volgende Passages (komende 24 uur)

TLE

VersSource: CelesTrak SupGP

Epoch: Sep 14, 2026, 23:17 UTC

1 67611C 26018Y   26257.97062500  .00003365  00000+0  10446-3 0  2570
2 67611  97.2850 321.4253 0000804  90.4091  48.7201 15.33434010    16

Volg STARLINK-36636 in realtime met AllMySat

Download on the App Store